Location: Fort Worth, Tx
(32.7431°N, 97.3695°W)
Time: 02:10:54
(UTC-05:00)

Vanguard 2 - All Passes

Search period start: 26 February 2024 00:00
Search period end: 07 March 2024 00:00
Orbit: 553 x 2919 km, 32.9° (Epoch: 25 February)

Date Brightness Start Highest point End Pass type
(mag) Time Alt. Az. Time Alt. Az. Time Alt. Az.
26 Feb - 01:01:25 10° WNW 01:17:02 75° SSW 01:34:38 10° ESE visible
26 Feb - 03:13:19 10° W 03:28:57 42° SW 03:43:31 10° SSE visible
26 Feb - 05:32:43 10° WSW 05:38:52 13° SW 05:44:34 10° SSW visible
26 Feb - 18:51:05 10° SSW 18:58:10 43° SE 19:09:33 10° E daylight
26 Feb - 20:57:55 10° WSW 21:07:42 83° SSE 21:23:37 10° E visible
26 Feb - 23:06:45 10° W 23:19:40 89° S 23:37:38 10° E visible
27 Feb - 01:16:50 10° WNW 01:32:21 67° SSW 01:49:42 10° SE visible
27 Feb - 03:29:19 10° W 03:43:53 34° SW 03:57:34 10° SSE visible
27 Feb - 17:02:58 10° SSE 17:05:52 13° SE 17:09:16 10° ESE daylight
27 Feb - 19:05:49 10° SW 19:13:05 53° SSE 19:25:13 10° ENE daylight
27 Feb - 21:13:09 10° W 21:23:06 88° S 21:39:13 10° E visible
27 Feb - 23:22:05 10° W 23:35:09 85° SSW 23:53:08 10° ESE visible
28 Feb - 01:32:17 10° WNW 01:47:36 58° SSW 02:04:33 10° SE visible
28 Feb - 03:45:43 10° W 03:58:47 27° SW 04:11:10 10° S visible
28 Feb - 17:16:02 10° S 17:20:27 19° SE 17:26:24 10° E daylight
28 Feb - 19:20:42 10° SW 19:28:08 65° SSE 19:40:47 10° ENE daylight
28 Feb - 21:28:25 10° W 21:38:32 89° N 21:54:49 10° E visible
28 Feb - 23:37:23 10° W 23:50:36 80° SSW 00:08:31 10° ESE visible
29 Feb - 01:47:49 10° W 02:02:45 50° SSW 02:19:10 10° SE visible
29 Feb - 04:02:50 10° W 04:13:39 20° SW 04:24:04 10° S visible
29 Feb - 17:30:01 10° SSW 17:35:07 27° SE 17:42:36 10° E daylight
29 Feb - 19:35:44 10° WSW 19:43:18 75° SSE 19:56:20 10° E visible
29 Feb - 21:43:40 10° W 21:53:59 89° N 22:10:25 10° E visible
29 Feb - 23:52:42 10° W 00:05:58 73° SSW 00:23:45 10° ESE visible
01 Mar - 02:03:31 10° W 02:17:51 41° SW 02:33:29 10° SSE visible
01 Mar - 04:21:29 10° WSW 04:28:34 14° SW 04:35:29 10° SSW visible
01 Mar - 17:44:25 10° SSW 17:49:53 37° SE 17:58:25 10° E daylight
01 Mar - 19:50:52 10° WSW 19:58:34 83° SSE 20:11:51 10° E visible
01 Mar - 21:58:57 10° W 22:09:25 89° S 22:25:59 10° E visible
02 Mar - 00:08:02 10° W 00:21:16 65° SSW 00:38:47 10° SE visible
02 Mar - 02:19:27 10° W 02:32:55 33° SW 02:47:26 10° SSE night (unlit)
02 Mar - 17:59:06 10° SW 18:04:46 49° SSE 18:14:02 10° E daylight
02 Mar - 20:06:02 10° W 20:13:52 89° S 20:27:24 10° E visible
02 Mar - 22:14:12 10° W 22:24:49 84° SSW 22:41:28 10° ESE visible
03 Mar - 00:23:26 10° W 00:36:32 56° SSW 00:53:35 10° SE visible
03 Mar - 02:35:49 10° W 02:47:56 26° SW 03:00:55 10° S night (unlit)
03 Mar - 16:09:46 10° S 16:12:34 15° SE 16:15:56 10° ESE daylight
03 Mar - 18:13:58 10° SW 18:19:47 61° SSE 18:29:33 10° E daylight
03 Mar - 20:21:15 10° W 20:29:13 89° N 20:42:58 10° E visible
03 Mar - 22:29:26 10° W 22:40:10 78° SSW 22:56:49 10° ESE visible
04 Mar - 00:38:55 10° W 00:51:44 47° SSW 01:08:08 10° SE visible
04 Mar - 02:52:54 10° W 03:02:59 19° SW 03:13:37 10° S night (unlit)
04 Mar - 16:23:29 10° SSW 16:27:16 22° SE 16:32:19 10° E daylight
04 Mar - 18:28:58 10° WSW 18:34:54 73° SSE 18:45:01 10° E daylight
04 Mar - 20:36:26 10° W 20:44:34 89° N 20:58:31 10° E visible
04 Mar - 22:44:41 10° W 22:55:29 70° SSW 23:12:01 10° ESE visible
05 Mar - 00:54:34 10° W 01:06:55 39° SSW 01:22:21 10° SSE visible
05 Mar - 03:11:40 10° WSW 03:18:04 13° SW 03:24:40 10° SSW night (unlit)
05 Mar - 16:37:48 10° SSW 16:42:03 31° SE 16:48:07 10° E daylight
05 Mar - 18:44:03 10° WSW 18:50:06 83° SSE 19:00:28 10° E daylight
05 Mar - 20:51:38 10° W 20:59:54 88° S 21:14:02 10° E visible
05 Mar - 22:59:58 10° W 23:10:45 61° SSW 23:27:01 10° SE visible
06 Mar - 01:10:30 10° W 01:22:04 31° SW 01:36:11 10° SSE visible
06 Mar - 16:52:26 10° SW 16:56:56 43° SSE 17:03:41 10° E daylight
06 Mar - 18:59:12 10° W 19:05:20 89° S 19:15:56 10° E daylight
06 Mar - 21:06:49 10° W 21:15:13 82° SSW 21:29:28 10° ESE visible
06 Mar - 23:15:18 10° W 23:26:00 51° SSW 23:41:46 10° SE visible
